This is the latest recevied weather packets stored in our database for station/object VK1KCM-5. If no packets are shown the sender has not sent any weather packets the latest 10 day(s).
| Time | Temp. | Humidity | Pressure | Rain* | Wind** | Luminosity | Snow |
|---|---|---|---|---|---|---|---|
| 1787787068 | 10.56° C | 71% | 1026.4 hPa | 0 mm | - | - | - |
| 1787786813 | 10.56° C | 71% | 1026.7 hPa | 0 mm | - | - | - |
| 1787786557 | 10° C | 72% | 1026.7 hPa | 0 mm | - | - | - |
| 1787786272 | 10° C | 72% | 1026.6 hPa | 0 mm | - | - | - |
| 1787786002 | 10° C | 72% | 1026.7 hPa | 0 mm | - | - | - |
| 1787785737 | 8.89° C | 74% | 1026.8 hPa | 0 mm | - | - | - |
| 1787785477 | 8.89° C | 75% | 1027 hPa | 0 mm | - | - | - |
| 1787785202 | 8.89° C | 75% | 1027 hPa | 0 mm | - | - | - |
| 1787784960 | 8.89° C | 75% | 1027 hPa | 0 mm | - | - | - |
| 1787784683 | 8.89° C | 75% | 1026.7 hPa | 0 mm | - | - | - |
| 1787784437 | 8.89° C | 75% | 1026.9 hPa | 0 mm | - | - | - |
| 1787784158 | 8.89° C | 75% | 1027.1 hPa | 0 mm | - | - | - |
| 1787783862 | 8.33° C | 76% | 1027 hPa | 0 mm | - | - | - |
| 1787783592 | 7.78° C | 78% | 1027.2 hPa | 0 mm | - | - | - |
| 1787783348 | 7.78° C | 79% | 1027.2 hPa | 0 mm | - | - | - |
| 1787783068 | 7.78° C | 81% | 1027 hPa | 0 mm | - | - | - |
| 1787782787 | 7.22° C | 82% | 1027.4 hPa | 0 mm | - | - | - |
| 1787782487 | 7.22° C | 82% | 1027.1 hPa | 0 mm | - | - | - |
| 1787782247 | 7.22° C | 82% | 1027.1 hPa | 0 mm | - | - | - |
| 1787782002 | 6.67° C | 84% | 1027.3 hPa | 0 mm | - | - | - |
| 1787781747 | 6.67° C | 84% | 1027.3 hPa | 0 mm | - | - | - |
| 1787781482 | 6.11° C | 86% | 1027.4 hPa | 0 mm | - | - | - |
| 1787781213 | 6.11° C | 87% | 1027.7 hPa | 0 mm | - | - | - |
| 1787780942 | 5.56° C | 88% | 1027.4 hPa | 0 mm | - | - | - |
| 1787780647 | 5° C | 90% | 1027.3 hPa | 0 mm | - | - | - |
* Rain latest hour (hover to see other rain measurements)
** Current wind speed in m/s (hover to see current wind gust speed)